DW3979 Weather Reports


Display with metric or nautical units.
time (UTC)temp
F
wind
direction
speed
MPH
gust
MPH
rain 1hr
in
rain 24hr
in
rain mn
in
humidity
%
barometer
mb
20260506131815 47 214 0.0 0.0 0.00 0.01 0.00 54 1018.5
20260506131312 47 214 0.0 0.0 0.00 0.01 0.00 54 1018.4
20260506130306 46 214 0.0 0.0 0.00 0.01 0.00 54 1018.3
20260506125804 46 214 0.0 0.0 0.00 0.01 0.00 54 1018.2
20260506125304 46 214 0.0 0.0 0.00 0.01 0.00 54 1018.2
20260506124802 46 214 0.0 0.0 0.00 0.01 0.00 54 1018.2
20260506124302 46 214 0.0 0.0 0.00 0.01 0.00 54 1018.2
20260506123802 46 214 0.0 0.0 0.00 0.01 0.00 54 1018.1
20260506123302 45 214 0.0 0.0 0.00 0.01 0.00 54 1018.1
20260506122802 45 214 0.0 0.0 0.00 0.01 0.00 55 1018.0
20260506122305 45 214 0.0 0.0 0.00 0.01 0.00 55 1018.0
20260506121803 45 214 0.0 0.0 0.00 0.01 0.00 55 1017.9
20260506121302 45 214 0.0 0.0 0.00 0.01 0.00 55 1017.6
20260506120800 46 214 0.0 0.0 0.00 0.01 0.00 54 1017.6
20260506120301 45 214 0.0 0.0 0.00 0.01 0.00 54 1017.6
20260506115758 45 214 0.0 0.0 0.00 0.01 0.00 55 1017.6
20260506115257 45 214 0.0 0.0 0.00 0.01 0.00 54 1017.7
20260506114254 46 214 0.0 0.0 0.00 0.01 0.00 54 1017.7
20260506113753 46 214 0.0 0.0 0.00 0.01 0.00 54 1017.6
20260506113248 46 214 0.0 0.0 0.00 0.01 0.00 53 1017.7
20260506111746 46 214 0.0 0.0 0.00 0.01 0.00 53 1017.6
20260506111249 46 214 0.0 0.0 0.00 0.01 0.00 53 1017.5
20260506110745 46 214 0.0 0.0 0.00 0.01 0.00 52 1017.4
20260506110244 46 214 0.0 0.0 0.00 0.01 0.00 52 1017.4
20260506105743 47 214 0.0 0.0 0.00 0.01 0.00 51 1017.4
20260506105242 47 214 0.0 0.0 0.00 0.01 0.00 50 1017.4
20260506104742 48 214 0.0 0.0 0.00 0.01 0.00 50 1017.3
20260506103740 48 214 0.0 0.0 0.00 0.01 0.00 49 1017.3
20260506103237 49 209 0.0 0.0 0.00 0.01 0.00 48 1017.2
20260506102736 49 209 0.0 0.0 0.00 0.01 0.00 48 1017.2
20260506102238 49 209 0.0 0.0 0.00 0.01 0.00 48 1017.1
20260506101733 49 209 1.0 2.0 0.00 0.01 0.00 48 1017.1
20260506101227 49 209 1.0 3.0 0.00 0.01 0.00 48 1017.1
20260506100728 49 209 2.0 3.0 0.00 0.01 0.00 48 1017.1
20260506095726 48 217 1.0 3.0 0.00 0.01 0.00 49 1016.9
20260506095222 48 267 0.0 0.0 0.00 0.01 0.00 49 1017.1
20260506091714 49 270 0.0 0.0 0.00 0.01 0.00 49 1016.8
20260506091216 49 270 0.0 0.0 0.00 0.01 0.00 50 1016.8
20260506090708 49 270 0.0 0.0 0.00 0.01 0.00 49 1016.9
20260506090206 49 274 0.0 0.0 0.00 0.01 0.00 48 1016.9
20260506085204 49 313 0.0 0.0 0.00 0.01 0.00 49 1016.8
20260506084702 49 313 0.0 0.0 0.00 0.01 0.00 48 1016.7
20260506084202 50 313 0.0 1.0 0.00 0.01 0.00 48 1016.6
20260506083158 50 313 0.0 2.0 0.00 0.01 0.00 45 1016.6
20260506082657 51 264 1.0 4.0 0.00 0.01 0.00 45 1016.6
20260506082156 51 285 2.0 4.0 0.00 0.01 0.00 44 1016.6
20260506081657 51 275 1.0 3.0 0.00 0.01 0.00 44 1016.6
20260506080654 51 263 1.0 2.0 0.00 0.01 0.00 43 1016.6
20260506080152 51 245 1.0 2.0 0.00 0.01 0.00 43 1016.6
20260506073151 52 258 0.0 1.0 0.00 0.01 0.00 45 1016.6
20260506072646 52 254 0.0 2.0 0.00 0.01 0.00 46 1016.5
20260506072144 52 254 1.0 2.0 0.00 0.01 0.00 46 1016.5
20260506071643 52 254 1.0 2.0 0.00 0.01 0.00 46 1016.5
20260506071144 51 263 0.0 2.0 0.00 0.01 0.00 47 1016.5
20260506070644 51 271 0.0 0.0 0.00 0.01 0.00 47 1016.5
20260506062136 53 241 0.0 2.0 0.00 0.01 0.01 44 1016.2
20260506061637 53 241 0.0 0.0 0.00 0.01 0.01 43 1016.2
20260506061137 53 241 0.0 0.0 0.00 0.01 0.01 42 1016.2
20260506060636 53 241 0.0 0.0 0.00 0.01 0.01 43 1016.0
20260506060136 54 241 0.0 0.0 0.00 0.01 0.01 40 1016.0
20260506051136 56 246 3.0 6.0 0.00 0.01 0.01 35 1015.7
20260506050636 56 207 2.0 6.0 0.00 0.01 0.01 35 1015.6
20260506050137 56 239 2.0 3.0 0.00 0.01 0.01 36 1015.6
20260506045136 56 279 3.0 5.0 0.00 0.01 0.01 35 1015.6
20260506044637 56 218 2.0 5.0 0.00 0.01 0.01 35 1015.5
20260506043636 57 281 2.0 6.0 0.00 0.01 0.01 35 1015.4
20260506043137 57 254 2.0 6.0 0.00 0.01 0.01 35 1015.4
20260506042136 57 244 3.0 7.0 0.00 0.01 0.01 35 1015.2
20260506041636 57 211 3.0 7.0 0.00 0.01 0.01 35 1015.2
20260506041136 57 205 3.0 7.0 0.00 0.01 0.01 35 1015.1
20260506040636 57 232 3.0 7.0 0.00 0.01 0.01 36 1015.1
20260506040137 57 199 4.0 7.0 0.00 0.01 0.01 35 1015.1
20260506035636 57 213 4.0 7.0 0.00 0.01 0.01 35 1014.9
20260506035136 57 208 3.0 6.0 0.00 0.01 0.01 36 1014.9
20260506034636 57 240 3.0 6.0 0.00 0.01 0.01 36 1014.8
20260506034136 57 242 3.0 8.0 0.00 0.01 0.01 36 1014.7
20260506033637 57 250 3.0 8.0 0.00 0.01 0.01 35 1014.6
20260506033137 57 243 3.0 8.0 0.00 0.01 0.01 35 1014.4
20260506032637 57 269 3.0 8.0 0.00 0.01 0.01 35 1014.3
20260506032137 57 243 3.0 8.0 0.00 0.01 0.01 35 1014.2
20260506031636 57 300 4.0 7.0 0.00 0.01 0.01 35 1014.1
20260506031137 58 207 4.0 9.0 0.00 0.01 0.01 35 1014.1
20260506030637 58 188 4.0 9.0 0.00 0.01 0.01 35 1013.8
20260506025137 58 195 4.0 8.0 0.00 0.01 0.01 36 1013.4
20260506024636 58 247 4.0 8.0 0.00 0.01 0.01 35 1013.4
20260506024136 58 235 4.0 10.0 0.00 0.01 0.01 35 1013.4
20260506023636 58 232 4.0 10.0 0.00 0.01 0.01 35 1013.2
20260506022637 58 230 4.0 8.0 0.00 0.01 0.01 35 1013.2
20260506022133 58 213 3.0 8.0 0.00 0.01 0.01 35 1013.0
20260506021633 58 230 4.0 7.0 0.00 0.01 0.01 35 1013.0
20260506021132 59 206 4.0 9.0 0.00 0.01 0.01 35 1012.9
20260506020633 59 246 3.0 9.0 0.00 0.01 0.01 35 1012.7
20260506020133 59 197 4.0 8.0 0.00 0.01 0.01 34 1012.7
20260506015632 59 234 3.0 7.0 0.00 0.01 0.01 34 1012.6
20260506015132 59 209 3.0 6.0 0.00 0.01 0.01 34 1012.6
20260506014632 59 178 3.0 8.0 0.00 0.01 0.01 33 1012.6
20260506014132 59 198 4.0 9.0 0.00 0.01 0.01 33 1012.5
20260506013632 59 203 3.0 9.0 0.01 0.01 0.01 33 1012.5
20260506012631 59 194 3.0 6.0 0.01 0.01 0.01 35 1012.4
20260506012130 59 201 3.0 7.0 0.01 0.01 0.01 38 1012.4
20260506011627 59 165 3.0 7.0 0.01 0.01 0.01 39 1012.4
20260506011127 59 193 3.0 5.0 0.01 0.01 0.01 39 1012.4
20260506010625 58 163 3.0 5.0 0.01 0.01 0.01 44 1012.4
20260506010120 57 187 2.0 5.0 0.01 0.01 0.01 43 1012.2
20260506005621 56 209 0.0 2.0 0.01 0.01 0.01 59 1012.2
20260506005121 56 209 1.0 6.0 0.01 0.01 0.01 58 1012.2
20260506004621 57 209 3.0 11.0 0.01 0.01 0.01 54 1012.3
20260506004120 58 190 4.0 12.0 0.01 0.01 0.01 50 1012.5
20260506003620 62 205 5.0 12.0 0.00 0.00 0.00 37 1012.4
20260506003121 62 186 4.0 10.0 0.00 0.00 0.00 28 1012.1
20260506002621 62 184 3.0 10.0 0.00 0.00 0.00 27 1011.9
20260506001620 63 180 2.0 6.0 0.00 0.00 0.00 26 1011.8
20260506000623 63 191 2.0 6.0 0.00 0.00 0.00 27 1011.7
20260506000117 63 159 3.0 6.0 0.00 0.00 0.00 27 1011.8
20260505235616 63 188 2.0 6.0 0.00 0.00 0.00 26 1011.7
20260505234110 63 181 4.0 10.0 0.00 0.00 0.00 26 1011.5
20260505233610 64 184 5.0 16.0 0.00 0.00 0.00 26 1011.6
20260505233110 65 196 5.0 16.0 0.00 0.00 0.00 25 1011.5
20260505232610 66 138 4.0 13.0 0.00 0.00 0.00 25 1011.4
20260505232110 65 155 3.0 8.0 0.00 0.00 0.00 26 1011.4
20260505231610 65 171 3.0 9.0 0.00 0.00 0.00 28 1011.4
20260505231110 65 170 3.0 9.0 0.00 0.00 0.00 24 1011.3
20260505230610 65 169 2.0 8.0 0.00 0.00 0.00 25 1011.3
20260505230111 64 194 3.0 8.0 0.00 0.00 0.00 25 1011.3
20260505225610 65 214 5.0 11.0 0.00 0.00 0.00 27 1011.2
20260505225109 66 134 6.0 11.0 0.00 0.00 0.00 28 1011.3
20260505224610 67 138 5.0 11.0 0.00 0.00 0.00 28 1011.0
20260505223608 68 142 4.0 13.0 0.00 0.00 0.00 28 1011.0
20260505223108 67 126 4.0 11.0 0.00 0.00 0.00 29 1011.0
20260505222608 67 89 5.0 11.0 0.00 0.00 0.00 28 1011.5
20260505222108 67 136 5.0 10.0 0.00 0.00 0.00 29 1011.5
20260505221111 67 133 5.0 13.0 0.00 0.00 0.00 27 1011.5
20260505220609 67 206 5.0 14.0 0.00 0.00 0.00 28 1011.6
20260505220108 67 162 4.0 14.0 0.00 0.00 0.00 29 1011.4
20260505215607 67 120 4.0 10.0 0.00 0.00 0.00 31 1011.6
20260505215106 67 132 6.0 10.0 0.00 0.00 0.00 30 1011.7
20260505214607 67 140 6.0 13.0 0.00 0.00 0.00 30 1011.8
20260505214107 67 113 5.0 13.0 0.00 0.00 0.00 32 1011.8
20260505213607 66 111 6.0 13.0 0.00 0.00 0.00 32 1011.8
20260505213106 67 128 5.0 13.0 0.00 0.00 0.00 32 1011.9
20260505212606 66 124 5.0 13.0 0.00 0.00 0.00 34 1012.1
20260505212106 64 142 5.0 13.0 0.00 0.00 0.00 36 1012.1
20260505211606 64 140 4.0 9.0 0.00 0.00 0.00 35 1012.1
20260505211106 66 134 4.0 10.0 0.00 0.00 0.00 34 1012.4
20260505210606 66 154 5.0 10.0 0.00 0.00 0.00 34 1012.4
20260505210104 65 133 4.0 10.0 0.00 0.00 0.00 34 1012.3
20260505205604 65 124 4.0 10.0 0.00 0.00 0.00 33 1012.3
20260505205105 66 134 5.0 14.0 0.00 0.00 0.00 33 1012.4
20260505204604 67 178 5.0 14.0 0.00 0.00 0.00 34 1012.4
20260505204104 66 100 4.0 11.0 0.00 0.00 0.00 35 1012.4
20260505193044 66 163 5.0 17.0 0.00 0.00 0.00 36 1012.6
20260505192542 66 140 6.0 17.0 0.00 0.00 0.00 34 1012.7
20260505192042 66 131 7.0 14.0 0.00 0.00 0.00 34 1012.7
20260505191540 66 92 5.0 13.0 0.00 0.00 0.00 36 1013.0
20260505191041 66 169 4.0 11.0 0.00 0.00 0.00 34 1012.7
20260505190536 66 120 4.0 11.0 0.00 0.00 0.00 34 1012.7
20260505185534 65 169 5.0 9.0 0.00 0.00 0.00 34 1013.0
20260505185029 64 146 5.0 11.0 0.00 0.00 0.00 37 1013.0
20260505184024 62 138 4.0 9.0 0.00 0.00 0.00 40 1013.1
20260505183524 63 145 4.0 9.0 0.00 0.00 0.00 38 1013.3
20260505182524 63 138 4.0 14.0 0.00 0.00 0.00 40 1013.3
20260505182023 63 96 4.0 12.0 0.00 0.00 0.00 41 1013.2
20260505181523 63 111 4.0 12.0 0.00 0.00 0.00 40 1013.4
20260505181020 62 114 4.0 10.0 0.00 0.00 0.00 41 1013.3
20260505180519 64 148 4.0 10.0 0.00 0.00 0.00 39 1013.3
20260505180017 64 153 4.0 11.0 0.00 0.00 0.00 41 1013.3
20260505175516 63 155 4.0 11.0 0.00 0.00 0.00 43 1013.3
20260505174514 63 130 4.0 10.0 0.00 0.00 0.00 43 1013.4
20260505174012 62 139 4.0 7.0 0.00 0.00 0.00 45 1013.3
20260505173512 62 147 3.0 6.0 0.00 0.00 0.00 44 1013.3
20260505173014 62 150 3.0 7.0 0.00 0.00 0.00 44 1013.3
20260505172512 62 128 4.0 9.0 0.00 0.00 0.00 47 1013.2
20260505172010 60 163 3.0 9.0 0.00 0.00 0.00 47 1013.2
20260505171509 59 146 3.0 8.0 0.00 0.00 0.00 48 1013.3
20260505171010 59 158 3.0 8.0 0.00 0.00 0.00 49 1013.4
20260505170509 59 150 2.0 5.0 0.00 0.00 0.00 49 1013.3
20260505170009 59 117 2.0 7.0 0.00 0.00 0.00 49 1013.3
20260505165508 58 190 1.0 7.0 0.00 0.00 0.00 50 1013.3
20260505165007 58 182 2.0 6.0 0.00 0.00 0.00 50 1013.3
20260505164508 58 164 3.0 6.0 0.00 0.00 0.00 50 1013.3
20260505164004 57 262 3.0 7.0 0.00 0.00 0.00 50 1013.3
20260505163003 56 221 2.0 4.0 0.00 0.00 0.00 56 1013.4
20260505162502 56 167 3.0 9.0 0.00 0.00 0.00 55 1013.5
20260505161002 57 168 3.0 6.0 0.00 0.00 0.00 55 1013.8
20260505160502 57 153 3.0 11.0 0.00 0.00 0.00 54 1013.7
20260505152958 57 128 3.0 6.0 0.00 0.00 0.00 56 1013.8
20260505152457 56 132 4.0 8.0 0.00 0.00 0.00 55 1013.8
20260505151956 57 167 4.0 8.0 0.00 0.00 0.00 54 1013.8
20260505151455 57 146 4.0 8.0 0.00 0.00 0.00 54 1013.8
20260505150956 58 167 3.0 7.0 0.00 0.00 0.00 53 1013.8
20260505150448 58 128 2.0 7.0 0.00 0.00 0.00 55 1013.8
20260505140438 53 174 0.0 0.0 0.00 0.00 0.00 59 1013.9